Ketchikan, AK

12:31 AM AKST on December 19, 2018 (GMT -0900)
Ketchikan International

Weather History for PAKT - April, 2018

Change the Weather History Date:

Tuesday, April 10, 2018

  Actual Average Record
Temperature  
Mean Temperature 50 °F -  
Max Temperature 60 °F 48 °F 65 °F (1959)
Min Temperature 42 °F 34 °F 22 °F (1966)
Degree Days  
Heating Degree Days 16    
Moisture  
Dew Point 39 °F    
Average Humidity 75    
Maximum Humidity 97    
Minimum Humidity 44    
Precipitation  
Precipitation 0.24 in - - ()
Sea Level Pressure  
Sea Level Pressure 29.39 in    
Wind  
Wind Speed 10 mph (SSE)    
Max Wind Speed 38 mph    
Max Gust Speed 66 mph    
Visibility 9 miles    
Events Rain    
Averages and records for this station are not official NWS values.
T = Trace of Precipitation, MM = Missing Value Source: NWS Daily Summary

Daily Weather History Graph

Daily Weather History Graph

Search for Another Location

Airport or City:

Astronomy

Apr. 10, 2018 Rise Set
Actual Time 5:54 AM AKDT 7:42 PM AKDT
Civil Twilight 5:16 AM AKDT 8:21 PM AKDT
Nautical Twilight 4:28 AM AKDT 9:09 PM AKDT
Astronomical Twilight 3:32 AM AKDT 10:06 PM AKDT
Moon 4:23 AM AKDT (4/10) 1:21 PM AKDT (4/10)
Length of Visible Light 15h 05m
Length of Day
13h 47m
Waning Crescent, 27% of the Moon is Illuminated
Apr 10
Waning Crescent
Apr 15
New
Apr 22
First Quarter
Apr 29
Full
May 7
Last Quarter

Hourly Weather History & Observations

Time (AKDT) Temp. Windchill Dew Point Humidity Pressure Visibility Wind Dir Wind Speed Gust Speed Precip Events Conditions
12:53 AM 43.0 °F 41.3 °F 42.1 °F 97% 29.66 in 10.0 mi WNW 3.5 mph - N/A   Overcast
1:53 AM 42.1 °F 39.2 °F 41.0 °F 96% 29.61 in 10.0 mi SW 4.6 mph - N/A   Clear
2:53 AM 42.1 °F 36.6 °F 41.0 °F 96% 29.59 in 10.0 mi ESE 9.2 mph - N/A   Overcast
3:53 AM 45.0 °F 43.5 °F 41.0 °F 86% 29.55 in 10.0 mi Variable 3.5 mph - 0.01 in Rain Light Rain
4:53 AM 46.9 °F - 39.9 °F 77% 29.49 in 10.0 mi South 3.5 mph - 0.00 in   Overcast
5:53 AM 46.0 °F 42.5 °F 39.9 °F 79% 29.42 in 10.0 mi WNW 6.9 mph - N/A   Overcast
6:09 AM 46.0 °F 43.9 °F 39.9 °F 79% 29.39 in 10.0 mi NNW 4.6 mph - N/A   Overcast
6:53 AM 46.4 °F 44.3 °F 39.2 °F 76% 29.36 in 10.0 mi WNW 4.6 mph - N/A   Overcast
7:53 AM 48.2 °F - 39.2 °F 71% 29.30 in 10.0 mi Variable 3.5 mph - N/A   Overcast
8:53 AM 50.0 °F - 39.2 °F 66% 29.24 in 10.0 mi Calm Calm - N/A   Overcast
9:53 AM 53.6 °F - 39.2 °F 58% 29.21 in 10.0 mi Variable 3.5 mph - N/A   Overcast
10:53 AM 57.2 °F - 35.6 °F 44% 29.16 in 10.0 mi SE 18.4 mph 25.3 mph N/A   Overcast
11:53 AM 57.2 °F - 35.6 °F 44% 29.14 in 10.0 mi ESE 12.7 mph 24.2 mph N/A Rain Light Rain
12:53 PM 57.9 °F - 37.9 °F 47% 29.13 in 10.0 mi SE 19.6 mph 28.8 mph 0.00 in Rain Light Rain
1:53 PM 57.2 °F - 39.2 °F 51% 29.13 in 10.0 mi SSE 12.7 mph 20.7 mph N/A   Overcast
2:53 PM 50.0 °F - 44.6 °F 82% 29.24 in 8.0 mi SE 19.6 mph 31.1 mph N/A Rain Light Rain
3:53 PM 46.9 °F - 39.0 °F 74% 29.28 in 6.0 mi SE 38.0 mph 65.6 mph 0.03 in Rain Light Rain
4:53 PM 45.0 °F 35.4 °F 39.0 °F 80% 29.36 in 6.0 mi SE 28.8 mph 43.7 mph 0.11 in Rain Light Rain
5:53 PM 44.6 °F 35.9 °F 39.2 °F 81% 29.43 in 10.0 mi SE 23.0 mph 32.2 mph N/A   Overcast
6:53 PM 45.0 °F 37.6 °F 39.9 °F 82% 29.44 in 10.0 mi SSE 17.3 mph - N/A   Overcast
7:53 PM 44.6 °F 36.4 °F 39.2 °F 81% 29.46 in 10.0 mi SE 20.7 mph 28.8 mph N/A Rain Light Rain
8:53 PM 44.6 °F 36.9 °F 39.2 °F 81% 29.47 in 10.0 mi SE 18.4 mph 26.5 mph N/A   Overcast
9:53 PM 46.0 °F 39.9 °F 37.0 °F 71% 29.48 in 10.0 mi SE 13.8 mph - N/A   Overcast
10:53 PM 44.1 °F 36.2 °F 39.9 °F 85% 29.50 in 10.0 mi SE 18.4 mph 21.9 mph 0.02 in Rain Light Rain
11:42 PM 43.0 °F 36.4 °F 39.9 °F 89% 29.51 in 5.0 mi SE 12.7 mph - 0.05 in Rain Light Rain
11:53 PM 43.0 °F 35.7 °F 39.9 °F 89% 29.52 in 6.0 mi SE 15.0 mph - 0.07 in Rain Light Rain